Location: Jastrz?bniki
(50.3667°N, 20.3833°E)
Time: 09:53:41
(UTC+00:00)

Cosmos 2322 - Pass Details

Date: 05 August 2024
Orbit: 841 x 852 km, 71.0° (Epoch: 09 September)

Event Time Altitude Azimuth Distance (km) Brightness Sun altitude
Exits shadow 01:43:54 13° 197° (SSW) 2,261 5.4 -12.1°
Maximum altitude 01:48:59 72° 115° (ESE) 891 3.9 -11.5°
Drops below altitude 10° 01:54:37 10° 33° (NNE) 2,471 7.6 -10.9°
Sets 01:57:05 0° 31° (NNE) 3,409 8.6 -10.6°
